M I D A S
Marine Information and Data Acquisition System
Tripno 693 of the Zeeleeuw from 2004-04-13 07:03:55 to 2004-04-13 14:33:18
Back to CruiseResearch ActivitiesStationsMapUnderway DataData graphs

EquipmentUnitsComments
TimeDGPSUTC
LatitudeDGPSDM.mWGS84
LongitudeDGPSDM.mWGS84
SpeedMeteo Stationm/sRelative wind speed
DirectionMeteo StationdegRelative wind direction
TemperatureMeteo Stationdeg CelciusAir temperature
PressureMeteo StationPaAtmospheric pressure
HumidityMeteo Station%Relative humidity
Missing or incorrect values are displayed as -999
Metereological data collected by the RV Zeeleeuw from 2004-04-13 07:03:55 to 2004-04-13 14:33:18
Time Latitude Longitude Speed Direction Temperature Pressure Humidity
2004-04-13 07:04 51°13.597 2°56.094 1.2 253 8.7 102370 89
2004-04-13 07:05 51°13.618 2°56.011 2.8 216 8.7 102360 88
2004-04-13 07:06 51°13.66 2°55.899 2.8 220 8.6 102360 88
2004-04-13 07:07 51°13.701 2°55.78 3.3 247 8.5 102360 88
2004-04-13 07:08 51°13.71 2°55.749 2 308 8.5 102370 88
2004-04-13 07:09 51°13.722 2°55.741 3.3 23 8.5 102370 88
2004-04-13 07:10 51°13.754 2°55.716 3.1 32 8.4 102370 88
2004-04-13 07:11 51°13.835 2°55.632 3.9 17 8.4 102360 88
2004-04-13 07:12 51°13.944 2°55.549 5.3 28 8.5 102360 88
2004-04-13 07:13 51°14.063 2°55.462 5.6 29 8.4 102360 88
2004-04-13 07:14 51°14.207 2°55.342 7.6 36 8.4 102350 88
2004-04-13 07:15 51°14.333 2°55.128 6.6 36 8.3 102350 88
2004-04-13 07:16 51°14.455 2°54.868 8.6 36 8.3 102350 88
2004-04-13 07:17 51°14.666 2°54.779 10.6 22 8.3 102330 88
2004-04-13 07:18 51°14.894 2°54.888 10.6 18 8.2 102330 88
2004-04-13 07:19 51°15.128 2°54.958 10.5 20 8.3 102330 88
2004-04-13 07:20 51°15.364 2°55.005 10.2 19 8.2 102340 88
2004-04-13 07:21 51°15.575 2°55.182 11 5 8.3 102350 88
2004-04-13 07:22 51°15.742 2°55.465 10.7 5 8.2 102350 88
2004-04-13 07:23 51°15.89 2°55.773 10.6 4 8.3 102360 88
2004-04-13 07:24 51°16.04 2°56.088 11.1 360 8.3 102350 88
2004-04-13 07:25 51°16.179 2°56.402 11.2   8.3 102350 88
2004-04-13 07:26 51°16.317 2°56.722 11.6 2 8.3 102360 88
2004-04-13 07:27 51°16.453 2°57.039 11.1 359 8.3 102360 88
2004-04-13 07:28 51°16.593 2°57.362 10.9 360 8.3 102370 88
2004-04-13 07:29 51°16.729 2°57.682 11.2 358 8.3 102360 88
2004-04-13 07:30 51°16.864 2°57.996 11.5 3 8.3 102360 88
2004-04-13 07:31 51°17 2°58.315 11.4   8.3 102360 88
2004-04-13 07:32 51°17.136 2°58.633 11.6   8.3 102370 88
2004-04-13 07:33 51°17.271 2°58.953 11.6 2 8.3 102370 88
2004-04-13 07:34 51°17.407 2°59.276 12.3 2 8.3 102370 88
2004-04-13 07:35 51°17.544 2°59.599 11.1 1 8.3 102370 88
2004-04-13 07:36 51°17.68 2°59.922 11.8 1 8.3 102360 88
2004-04-13 07:37 51°17.815 3°0.246 11.4 357 8.4 102370 88
2004-04-13 07:38 51°17.949 3°0.569 12.3 358 8.4 102370 88
2004-04-13 07:39 51°18.086 3°0.897 11.2 358 8.4 102370 88
2004-04-13 07:40 51°18.22 3°1.215 11.1   8.4 102370 88
2004-04-13 07:41 51°18.358 3°1.534 11.7 3 8.4 102380 88
2004-04-13 07:42 51°18.496 3°1.854 11.5 3 8.4 102370 88
2004-04-13 07:43 51°18.633 3°2.175 11.6 3 8.5 102370 89
2004-04-13 07:44 51°18.771 3°2.498 12.1 2 8.4 102380 88
2004-04-13 07:45 51°18.905 3°2.823 11 5 8.5 102370 89
2004-04-13 07:46 51°19.04 3°3.144 11.3 1 8.4 102370 88
2004-04-13 07:47 51°19.174 3°3.467 11.5 358 8.5 102370 89
2004-04-13 07:48 51°19.309 3°3.789 11.3 4 8.4 102380 88
2004-04-13 07:49 51°19.444 3°4.11 12 3 8.3 102370 88
2004-04-13 07:50 51°19.579 3°4.435 11.9 5 8.3 102370 87
2004-04-13 07:51 51°19.711 3°4.761 11.8 6 8.3 102370 87
2004-04-13 07:52 51°19.845 3°5.085 11.6 6 8.3 102360 86
2004-04-13 07:53 51°19.979 3°5.409 11.6 5 8.4 102380 86
2004-04-13 07:54 51°20.115 3°5.737 11.3 6 8.4 102370 86
2004-04-13 07:55 51°20.246 3°6.055 11.3 5 8.3 102380 85
2004-04-13 07:56 51°20.379 3°6.377 10.7 5 8.4 102380 85
2004-04-13 07:57 51°20.536 3°6.666 11.8 4 8.3 102370 85
2004-04-13 07:58 51°20.698 3°6.961 11.8 5 8.3 102380 84
2004-04-13 07:59 51°20.856 3°7.245 11 4 8.3 102370 84
2004-04-13 08:00 51°21.014 3°7.536 11.2 4 8.4 102380 84
2004-04-13 08:01 51°21.171 3°7.829 11.3 1 8.4 102380 84
2004-04-13 08:02 51°21.305 3°8.149 11.1 1 8.4 102380 83
2004-04-13 08:03 51°21.442 3°8.472 11.8 1 8.4 102390 83
2004-04-13 08:04 51°21.57 3°8.802 12 1 8.5 102380 83
2004-04-13 08:05 51°21.693 3°9.142 11.6 360 8.5 102380 83
2004-04-13 08:06 51°21.813 3°9.47 11 359 8.5 102390 83
2004-04-13 08:07 51°21.936 3°9.805 11.4 359 8.5 102380 83
2004-04-13 08:08 51°22.046 3°10.144 11.4 359 8.5 102380 83
2004-04-13 08:09 51°22.135 3°10.497 10.6 355 8.6 102380 83
2004-04-13 08:10 51°22.203 3°10.865 10.9 353 8.6 102380 83
2004-04-13 08:11 51°22.273 3°11.231 11.1 353 8.6 102380 83
2004-04-13 08:12 51°22.344 3°11.598 11.1 354 8.6 102390 83
2004-04-13 08:13 51°22.405 3°11.979 10.7 353 8.6 102390 82
2004-04-13 08:14 51°22.455 3°12.353 11 352 8.6 102390 82
2004-04-13 08:15 51°22.504 3°12.732 11 351 8.6 102390 82
2004-04-13 08:16 51°22.563 3°13.102 11 356 8.6 102390 82
2004-04-13 08:17 51°22.629 3°13.469 10.1 351 8.6 102390 82
2004-04-13 08:18 51°22.696 3°13.835 10.2 354 8.6 102400 82
2004-04-13 08:19 51°22.761 3°14.2 11.2 353 8.6 102390 82
2004-04-13 08:20 51°22.828 3°14.564 11.4 354 8.6 102390 82
2004-04-13 08:21 51°22.893 3°14.929 10 352 8.6 102390 82
2004-04-13 08:22 51°22.958 3°15.301 9.9 355 8.6 102390 82
2004-04-13 08:23 51°23.022 3°15.666 10.5 352 8.7 102400 82
2004-04-13 08:24 51°23.062 3°16.03 10 350 8.7 102400 82
2004-04-13 08:25 51°23.102 3°16.399 10.8 351 8.7 102400 82
2004-04-13 08:26 51°23.142 3°16.769 10 350 8.7 102390 82
2004-04-13 08:27 51°23.185 3°17.141 9.7 353 8.7 102400 82
2004-04-13 08:28 51°23.236 3°17.51 9.8 351 8.7 102400 82
2004-04-13 08:29 51°23.287 3°17.88 10.1 349 8.7 102400 82
2004-04-13 08:30 51°23.337 3°18.253 9.4 351 8.7 102400 82
2004-04-13 08:31 51°23.388 3°18.612 10 352 8.7 102400 82
2004-04-13 08:32 51°23.44 3°18.975 9.9 348 8.8 102400 82
2004-04-13 08:33 51°23.491 3°19.337 10.2 351 8.8 102400 82
2004-04-13 08:34 51°23.542 3°19.697 10.3 351 8.8 102400 82
2004-04-13 08:35 51°23.59 3°20.054 10.2 350 8.8 102400 82
2004-04-13 08:36 51°23.639 3°20.409 10.4 348 8.7 102400 82
2004-04-13 08:37 51°23.688 3°20.764 9.7 351 8.8 102400 82
2004-04-13 08:38 51°23.736 3°21.12 9.6 350 8.8 102400 82
2004-04-13 08:39 51°23.783 3°21.484 9.4 349 8.8 102400 82
2004-04-13 08:40 51°23.816 3°21.84 9.2 350 8.8 102400 82
2004-04-13 08:41 51°23.852 3°22.202 9.2 352 8.8 102400 82
2004-04-13 08:42 51°23.888 3°22.565 9.2 353 8.8 102400 82
2004-04-13 08:43 51°23.927 3°22.934 8.9 351 8.8 102400 83
2004-04-13 08:44 51°23.964 3°23.289 9.2 347 8.9 102400 83
2004-04-13 08:45 51°24.002 3°23.65 9 351 8.9 102400 83
2004-04-13 08:46 51°24.041 3°24.009 9.6 352 9 102390 83
2004-04-13 08:47 51°24.08 3°24.367 8.8 350 9 102400 83
2004-04-13 08:48 51°24.121 3°24.731 9.4 352 9 102390 83
2004-04-13 08:49 51°24.159 3°25.084 8.5 351 9.1 102400 83
2004-04-13 08:50 51°24.198 3°25.443 9 344 9.1 102390 83
2004-04-13 08:51 51°24.237 3°25.802 9.1 348 9.1 102390 82
2004-04-13 08:52 51°24.29 3°26.16 9.4 345 9.1 102390 82
2004-04-13 08:53 51°24.344 3°26.504 9 346 9.1 102390 82
2004-04-13 08:54 51°24.398 3°26.853 8.6 347 9.2 102390 82
2004-04-13 08:55 51°24.453 3°27.203 8.7 346 9.2 102390 82
2004-04-13 08:56 51°24.492 3°27.558 8.1 349 9.3 102390 82
2004-04-13 08:57 51°24.53 3°27.914 8.5 347 9.3 102390 83
2004-04-13 08:58 51°24.559 3°28.256 9.2 348 9.4 102390 82
2004-04-13 08:59 51°24.587 3°28.605 9.1 350 9.4 102390 82
2004-04-13 09:00 51°24.615 3°28.955 9.3 352 9.5 102390 82
2004-04-13 09:01 51°24.642 3°29.311 8.4 348 9.5 102390 81
2004-04-13 09:02 51°24.672 3°29.658 8.6 355 9.5 102390 81
2004-04-13 09:03 51°24.711 3°29.997 9 355 9.5 102390 81
2004-04-13 09:04 51°24.742 3°30.343 8.3 352 9.5 102390 80
2004-04-13 09:05 51°24.762 3°30.684 8.1 353 9.5 102390 80
2004-04-13 09:06 51°24.778 3°31.001 8.2 354 9.5 102390 79
2004-04-13 09:07 51°24.798 3°31.338 7.9 353 9.5 102390 79
2004-04-13 09:08 51°24.817 3°31.666 8.4 1 9.5 102390 79
2004-04-13 09:09 51°24.836 3°31.993 9.2 358 9.4 102390 79
2004-04-13 09:10 51°24.859 3°32.328 8.8   9.4 102390 79
2004-04-13 09:11 51°24.883 3°32.652 8.5 356 9.4 102390 80
2004-04-13 09:12 51°24.906 3°32.987 9.6 356 9.4 102390 80
2004-04-13 09:13 51°24.934 3°33.328 9.6 359 9.3 102390 80
2004-04-13 09:14 51°24.973 3°33.67 10.3 356 9.3 102390 79
2004-04-13 09:15 51°25.006 3°33.997 10 354 9.3 102390 79
2004-04-13 09:16 51°25.026 3°34.323 9.1 352 9.4 102390 78
2004-04-13 09:17 51°25.056 3°34.596 8.7 349 9.4 102390 78
2004-04-13 09:18 51°25.06 3°34.786 5.3 336 9.5 102390 77
2004-04-13 09:19 51°25.002 3°34.851 1.8 251 9.5 102400 77
2004-04-13 09:20 51°25.005 3°34.833 3.4 215 9.5 102400 77
2004-04-13 09:21 51°25.005 3°34.811 2.8 200 9.5 102400 76
2004-04-13 09:22 51°24.991 3°34.756 1.9 152 9.6 102400 77
2004-04-13 09:23 51°24.984 3°34.69 2.2 136 9.6 102400 76
2004-04-13 09:24 51°24.98 3°34.622 2.2 135 9.5 102400 75
2004-04-13 09:25 51°24.975 3°34.549 1.9 144 9.5 102400 75
2004-04-13 09:26 51°24.967 3°34.481 2 154 9.5 102400 75
2004-04-13 09:27 51°24.957 3°34.415 1.9 161 9.5 102410 74
2004-04-13 09:28 51°24.945 3°34.349 2 161 9.5 102400 75
2004-04-13 09:29 51°24.933 3°34.286 2.1 160 9.6 102400 75
2004-04-13 09:30 51°24.921 3°34.222 1.8 161 9.5 102400 75
2004-04-13 09:31 51°24.908 3°34.16 1.9 161 9.5 102400 75
2004-04-13 09:32 51°24.893 3°34.097 1.6 169 9.5 102400 74
2004-04-13 09:33 51°24.878 3°34.038 1.2 174 9.5 102400 74
2004-04-13 09:34 51°24.861 3°33.98 1 179 9.5 102400 73
2004-04-13 09:35 51°24.821 3°33.956 3 309 9.6 102400 72
2004-04-13 09:36 51°24.831 3°34.018 4.5 2 9.7 102400 73
2004-04-13 09:37 51°24.916 3°33.942 4.7 31 9.7 102390 73
2004-04-13 09:38 51°24.984 3°33.739 4.6 29 9.6 102390 72
2004-04-13 09:39 51°25.066 3°33.503 5.8 24 9.6 102390 73
2004-04-13 09:40 51°25.165 3°33.228 8.4 21 9.7 102390 73
2004-04-13 09:41 51°25.277 3°32.869 8.7 27 9.7 102380 72
2004-04-13 09:42 51°25.379 3°32.499 7 23 9.7 102380 71
2004-04-13 09:43 51°25.479 3°32.127 8.2 24 9.7 102380 71
2004-04-13 09:44 51°25.581 3°31.749 8.1 18 9.8 102380 72
2004-04-13 09:45 51°25.675 3°31.378 7.7 25 9.8 102380 73
2004-04-13 09:46 51°25.774 3°31.001 8.5 25 9.8 102380 73
2004-04-13 09:47 51°25.833 3°30.608 8 33 9.7 102380 73
2004-04-13 09:48 51°25.885 3°30.209 7.6 33 9.6 102380 73
2004-04-13 09:49 51°25.937 3°29.815 7.4 27 9.6 102380 74
2004-04-13 09:50 51°25.992 3°29.427 7.9 29 9.6 102380 74
2004-04-13 09:51 51°26.049 3°29.035 8.5 27 9.6 102380 75
2004-04-13 09:52 51°26.106 3°28.657 7.9 31 9.6 102380 75
2004-04-13 09:53 51°26.168 3°28.274 7.5 27 9.6 102390 76
2004-04-13 09:54 51°26.229 3°27.89 7.9 27 9.6 102390 76
2004-04-13 09:55 51°26.291 3°27.503 7.8 29 9.5 102390 76
2004-04-13 09:56 51°26.383 3°27.132 8.3 28 9.5 102390 76
2004-04-13 09:57 51°26.498 3°26.805 6.3 34 9.5 102390 75
2004-04-13 09:58 51°26.583 3°26.708 3.5 18 9.4 102400 74
2004-04-13 09:59 51°26.606 3°26.668 1.9 355 9.5 102410 74
2004-04-13 10:00 51°26.634 3°26.657 3.4 327 9.6 102410 73
2004-04-13 10:01 51°26.65 3°26.677 3 307 9.6 102410 73
2004-04-13 10:02 51°26.659 3°26.702 2.5 303 9.6 102410 73
2004-04-13 10:03 51°26.671 3°26.729 2.7 311 9.7 102410 72
2004-04-13 10:04 51°26.688 3°26.755 2.7 42 9.7 102410 72
2004-04-13 10:05 51°26.721 3°26.769 3.3 334 9.8 102410 72
2004-04-13 10:06 51°26.765 3°26.762 3.3 357 9.8 102410 72
2004-04-13 10:07 51°26.813 3°26.731 3.6 37 9.8 102410 73
2004-04-13 10:08 51°26.859 3°26.675 3.9 62 9.8 102410 73
2004-04-13 10:09 51°26.894 3°26.6 3.3 95 9.7 102410 74
2004-04-13 10:10 51°26.914 3°26.522 3.2 128 9.7 102410 75
2004-04-13 10:11 51°26.92 3°26.45 2.3 149 9.7 102410 76
2004-04-13 10:12 51°26.918 3°26.392 1.4 206 9.7 102410 77
2004-04-13 10:13 51°26.907 3°26.357 2.2 245 9.7 102410 77
2004-04-13 10:14 51°26.889 3°26.351 2.6 274 9.7 102410 77
2004-04-13 10:15 51°26.868 3°26.366 2.9 290 9.8 102410 77
2004-04-13 10:16 51°26.826 3°26.442 4.2 319 9.8 102410 77
2004-04-13 10:17 51°26.743 3°26.57 4.6 329 9.9 102400 77
2004-04-13 10:18 51°26.658 3°26.694 2.5 310 9.9 102400 77
2004-04-13 10:19 51°26.601 3°26.695 1.8 241 9.9 102410 77
2004-04-13 10:20 51°26.57 3°26.679 1.9 252 9.9 102410 77
2004-04-13 10:21 51°26.551 3°26.672 2.3 257 9.9 102410 77
2004-04-13 10:22 51°26.541 3°26.674 3.1 267 9.9 102410 77
2004-04-13 10:23 51°26.537 3°26.678 3 274 9.9 102410 77
2004-04-13 10:24 51°26.538 3°26.683 2.9 275 9.9 102410 77
2004-04-13 10:25 51°26.541 3°26.688 2.8 278 9.9 102420 77
2004-04-13 10:26 51°26.544 3°26.692 3.2 281 10 102410 78
2004-04-13 10:27 51°26.544 3°26.697 3.8 272 9.9 102410 77
2004-04-13 10:28 51°26.541 3°26.702 3.5 269 10 102410 77
2004-04-13 10:29 51°26.538 3°26.708 3 272 10 102410 77
2004-04-13 10:30 51°26.536 3°26.715 3 272 10 102410 77
2004-04-13 10:31 51°26.535 3°26.724 3.3 279 10 102410 76
2004-04-13 10:32 51°26.534 3°26.734 2.8 286 10 102410 76
2004-04-13 10:33 51°26.535 3°26.748 2.7 284 10.1 102410 76
2004-04-13 10:34 51°26.508 3°26.771 1.3 272 10.1 102410 76
2004-04-13 10:35 51°26.355 3°26.775 4.3 356 10.2 102410 76
2004-04-13 10:36 51°26.149 3°26.783 4.3 4 10.2 102410 76
2004-04-13 10:37 51°25.935 3°26.7 4.9 11 10.2 102410 76
2004-04-13 10:38 51°25.736 3°26.496 6.4 18 10.2 102410 76
2004-04-13 10:39 51°25.64 3°26.128 7.8 18 10.2 102400 76
2004-04-13 10:40 51°25.656 3°25.719 8.3 18 10.1 102400 76
2004-04-13 10:41 51°25.665 3°25.313 8.7 19 10.1 102400 77
2004-04-13 10:42 51°25.635 3°24.912 8.5 23 10 102390 77
2004-04-13 10:43 51°25.626 3°24.504 9.3 23 9.9 102400 78
2004-04-13 10:44 51°25.644 3°24.097 9 29 9.8 102390 79
2004-04-13 10:45 51°25.658 3°23.68 9.5 33 9.6 102390 79
2004-04-13 10:46 51°25.673 3°23.286 9.4 30 9.3 102390 81
2004-04-13 10:47 51°25.688 3°22.873 9.9 35 9.1 102400 82
2004-04-13 10:48 51°25.706 3°22.476 9.5 40 8.9 102400 82
2004-04-13 10:49 51°25.73 3°22.061 9.7 38 8.8 102400 83
2004-04-13 10:50 51°25.74 3°21.648 8.9 41 8.7 102400 84
2004-04-13 10:51 51°25.733 3°21.247 8.8 42 8.6 102400 84
2004-04-13 10:52 51°25.729 3°20.834 9 44 8.6 102400 85
2004-04-13 10:53 51°25.725 3°20.436 9.3 44 8.5 102400 85
2004-04-13 10:54 51°25.722 3°20.031 8.4 44 8.5 102400 86
2004-04-13 10:55 51°25.719 3°19.621 8.8 44 8.4 102400 86
2004-04-13 10:56 51°25.711 3°19.219 8.7 43 8.5 102400 86
2004-04-13 10:57 51°25.689 3°18.82 8.3 42 8.4 102400 86
2004-04-13 10:58 51°25.667 3°18.42 8.3 44 8.4 102400 86
2004-04-13 10:59 51°25.644 3°18.023 8.1 42 8.3 102400 86
2004-04-13 11:00 51°25.622 3°17.633 8.1 47 8.4 102400 87
2004-04-13 11:01 51°25.601 3°17.23 8 43 8.4 102400 87
2004-04-13 11:02 51°25.579 3°16.842 8.1 43 8.3 102410 87
2004-04-13 11:03 51°25.566 3°16.448 7.9 43 8.3 102400 87
2004-04-13 11:04 51°25.555 3°16.047 8 45 8.3 102400 87
2004-04-13 11:05 51°25.542 3°15.654 8.5 47 8.3 102400 86
2004-04-13 11:06 51°25.538 3°15.267 8.2 46 8.3 102400 86
2004-04-13 11:07 51°25.526 3°14.874 7.9 45 8.3 102400 86
2004-04-13 11:08 51°25.515 3°14.473 8.1 38 8.3 102400 86
2004-04-13 11:09 51°25.509 3°14.077 8.2 47 8.3 102400 86
2004-04-13 11:10 51°25.503 3°13.679 8 45 8.3 102400 86
2004-04-13 11:11 51°25.495 3°13.274 8.2 38 8.3 102400 85
2004-04-13 11:12 51°25.507 3°12.883 8.2 41 8.3 102400 85
2004-04-13 11:13 51°25.524 3°12.495 8.4 40 8.3 102400 85
2004-04-13 11:14 51°25.547 3°12.098 8 36 8.3 102400 85
2004-04-13 11:15 51°25.588 3°11.717 8.8 47 8.3 102390 85
2004-04-13 11:16 51°25.676 3°11.367 10.2 35 8.3 102400 86
2004-04-13 11:17 51°25.809 3°11.063 9.2 36 8.3 102390 85
2004-04-13 11:18 51°25.975 3°10.812 11.2 27 8.4 102400 86
2004-04-13 11:19 51°26.19 3°10.675 11.8 17 8.5 102390 86
2004-04-13 11:20 51°26.408 3°10.75 12.1 359 8.5 102390 85
2004-04-13 11:21 51°26.583 3°10.975 11.9 353 8.6 102380 85
2004-04-13 11:22 51°26.749 3°11.2 12.3 351 8.6 102380 85
2004-04-13 11:23 51°26.898 3°11.463 12.6 351 8.7 102380 85
2004-04-13 11:24 51°27.046 3°11.722 12.2 349 8.7 102380 85
2004-04-13 11:25 51°27.192 3°11.981 11.5 346 8.8 102380 85
2004-04-13 11:26 51°27.334 3°12.243 11.9 349 8.8 102380 84
2004-04-13 11:27 51°27.472 3°12.514 12.2 348 8.8 102370 84
2004-04-13 11:28 51°27.618 3°12.776 12.1 345 8.8 102370 84
2004-04-13 11:29 51°27.758 3°13.049 12.2 339 8.8 102370 84
2004-04-13 11:30 51°27.878 3°13.333 11.5 344 8.9 102370 84
2004-04-13 11:31 51°27.999 3°13.624 11.3 345 8.8 102370 84
2004-04-13 11:32 51°28.122 3°13.92 11.6 341 8.9 102370 85
2004-04-13 11:33 51°28.245 3°14.202 11.8 345 8.8 102370 85
2004-04-13 11:34 51°28.368 3°14.492 12 341 8.9 102360 85
2004-04-13 11:35 51°28.494 3°14.79 12.8 341 8.8 102360 85
2004-04-13 11:36 51°28.616 3°15.076 11.9 343 8.8 102350 85
2004-04-13 11:37 51°28.741 3°15.369 11.5 342 8.8 102350 85
2004-04-13 11:38 51°28.86 3°15.656 11.4 344 8.8 102350 85
2004-04-13 11:39 51°28.98 3°15.833 9.6 346 8.8 102370 85
2004-04-13 11:40 51°29.043 3°15.932 7.3 42 8.8 102380 85
2004-04-13 11:41 51°29.064 3°15.967 6.4 333 8.8 102390 85
2004-04-13 11:42 51°29.086 3°15.97 6.6 350 8.8 102390 85
2004-04-13 11:43 51°29.115 3°15.965 6.6 2 8.8 102380 85
2004-04-13 11:44 51°29.144 3°15.949 6.2 16 8.8 102390 85
2004-04-13 11:45 51°29.174 3°15.919 6 32 8.8 102380 85
2004-04-13 11:46 51°29.2 3°15.877 6.8 42 8.7 102390 85
2004-04-13 11:47 51°29.222 3°15.825 6.4 56 8.6 102380 85
2004-04-13 11:48 51°29.241 3°15.765 5.7 71 8.5 102380 86
2004-04-13 11:49 51°29.258 3°15.701 5.6 79 8.4 102390 86
2004-04-13 11:50 51°29.273 3°15.634 5.9 80 8.4 102390 86
2004-04-13 11:51 51°29.287 3°15.564 6.2 90 8.4 102390 87
2004-04-13 11:52 51°29.299 3°15.491 6.6 92 8.4 102390 87
2004-04-13 11:53 51°29.31 3°15.393 6.1 70 8.4 102390 87
2004-04-13 11:54 51°29.349 3°15.092 9.5 48 8.4 102370 87
2004-04-13 11:55 51°29.412 3°14.723 10.7 47 8.4 102370 87
2004-04-13 11:56 51°29.474 3°14.356 10.5 43 8.3 102370 87
2004-04-13 11:57 51°29.538 3°13.976 10.3 43 8.3 102380 87
2004-04-13 11:58 51°29.6 3°13.601 9.9 46 8.2 102380 88
2004-04-13 11:59 51°29.664 3°13.226 9.9 46 8.2 102370 88
2004-04-13 12:00 51°29.727 3°12.849 9.3 49 8.2 102380 88
2004-04-13 12:01 51°29.791 3°12.472 9.7 45 8.2 102380 88
2004-04-13 12:02 51°29.857 3°12.101 9.9 48 8.2 102370 88
2004-04-13 12:03 51°29.931 3°11.73 9.4 44 8.1 102370 88
2004-04-13 12:04 51°30.004 3°11.361 9.1 45 8.1 102370 88
2004-04-13 12:05 51°30.077 3°10.991 9.3 42 8.1 102380 88
2004-04-13 12:06 51°30.15 3°10.609 9.8 43 8.1 102380 88
2004-04-13 12:07 51°30.219 3°10.253 9 42 8.1 102380 88
2004-04-13 12:08 51°30.292 3°9.881 9.4 42 8.1 102380 88
2004-04-13 12:09 51°30.363 3°9.515 9.6 41 8.1 102380 87
2004-04-13 12:10 51°30.434 3°9.152 9.6 40 8.1 102380 87
2004-04-13 12:11 51°30.504 3°8.789 9.4 43 8 102380 86
2004-04-13 12:12 51°30.575 3°8.424 9.6 42 8 102380 85
2004-04-13 12:13 51°30.646 3°8.052 8.8 41 8.1 102380 85
2004-04-13 12:14 51°30.712 3°7.692 10 42 8.1 102380 85
2004-04-13 12:15 51°30.778 3°7.327 9.5 40 8.1 102380 84
2004-04-13 12:16 51°30.847 3°6.957 9.9 42 8.2 102390 84
2004-04-13 12:17 51°30.912 3°6.609 8.9 46 8.2 102390 84
2004-04-13 12:18 51°30.958 3°6.355 6.3 61 8.2 102390 83
2004-04-13 12:19 51°30.971 3°6.185 5.4 87 8.2 102400 83
2004-04-13 12:20 51°30.965 3°6.053 5 95 8.2 102410 83
2004-04-13 12:21 51°30.961 3°5.952 5.4 91 8.3 102410 83
2004-04-13 12:22 51°30.964 3°5.882 5.2 92 8.4 102410 83
2004-04-13 12:23 51°30.967 3°5.815 5.1 91 8.4 102400 83
2004-04-13 12:24 51°30.966 3°5.754 5.1 107 8.5 102410 83
2004-04-13 12:25 51°30.961 3°5.691 5.6 108 8.5 102400 83
2004-04-13 12:26 51°30.953 3°5.635 5.1 114 8.4 102400 82
2004-04-13 12:27 51°30.944 3°5.578 5.3 117 8.4 102400 82
2004-04-13 12:28 51°30.934 3°5.526 5.3 114 8.5 102400 83
2004-04-13 12:29 51°30.919 3°5.477 4.4 133 8.5 102400 82
2004-04-13 12:30 51°30.899 3°5.431 4.3 153 8.5 102400 83
2004-04-13 12:31 51°30.873 3°5.394 4 176 8.4 102400 82
2004-04-13 12:32 51°30.843 3°5.371 4.5 210 8.4 102410 83
2004-04-13 12:33 51°30.812 3°5.362 4.7 233 8.5 102410 82
2004-04-13 12:34 51°30.756 3°5.35 0.8 155 8.5 102410 82
2004-04-13 12:35 51°30.69 3°5.126 7.5 57 8.6 102400 82
2004-04-13 12:36 51°30.749 3°4.787 9.3 47 8.5 102380 81
2004-04-13 12:37 51°30.837 3°4.441 10 41 8.4 102380 81
2004-04-13 12:38 51°30.951 3°4.107 10.9 36 8.3 102380 81
2004-04-13 12:39 51°31.08 3°3.807 11.2 36 8.3 102390 82
2004-04-13 12:40 51°31.21 3°3.494 10.2 37 8.3 102380 82
2004-04-13 12:41 51°31.344 3°3.176 11 33 8.3 102380 82
2004-04-13 12:42 51°31.484 3°2.886 9.8 36 8.4 102380 82
2004-04-13 12:43 51°31.626 3°2.596 10.8 34 8.4 102380 83
2004-04-13 12:44 51°31.763 3°2.317 10.7 32 8.3 102380 83
2004-04-13 12:45 51°31.911 3°2.019 10.8 34 8.3 102380 82
2004-04-13 12:46 51°32.053 3°1.726 10.5 33 8.3 102380 82
2004-04-13 12:47 51°32.193 3°1.445 10.4 36 8.3 102380 83
2004-04-13 12:48 51°32.355 3°1.168 10.7 30 8.3 102380 83
2004-04-13 12:49 51°32.515 3°0.93 10 30 8.3 102390 82
2004-04-13 12:50 51°32.682 3°0.677 10.4 29 8.3 102390 82
2004-04-13 12:51 51°32.845 3°0.428 10 29 8.4 102390 82
2004-04-13 12:52 51°32.964 3°0.224 5.9 62 8.4 102400 82
2004-04-13 12:53 51°32.994 3°0.131 5.2 52 8.4 102400 82
2004-04-13 12:54 51°33.008 3°0.1 5.3 35 8.3 102410 82
2004-04-13 12:55 51°33.027 3°0.076 5.1 32 8.2 102400 82
2004-04-13 12:56 51°33.047 3°0.048 5.3 48 8.3 102400 81
2004-04-13 12:57 51°33.065 3°0.007 5.7 67 8.3 102400 81
2004-04-13 12:58 51°33.077 2°59.952 5.8 85 8.2 102400 81
2004-04-13 12:59 51°33.08 2°59.883 5.6 97 8.3 102400 81
2004-04-13 13:00 51°33.075 2°59.809 4.5 110 8.3 102400 81
2004-04-13 13:01 51°33.06 2°59.733 3.6 129 8.3 102400 81
2004-04-13 13:02 51°33.036 2°59.658 4.1 142 8.4 102410 81
2004-04-13 13:03 51°33 2°59.588 3 159 8.4 102410 81
2004-04-13 13:04 51°32.958 2°59.534 2.3 185 8.4 102410 80
2004-04-13 13:05 51°32.91 2°59.498 3.4 215 8.6 102400 81
2004-04-13 13:06 51°32.862 2°59.485 3.4 239 8.6 102410 80
2004-04-13 13:07 51°32.816 2°59.49 3.7 252 8.6 102410 80
2004-04-13 13:08 51°32.776 2°59.511 5 270 8.6 102410 80
2004-04-13 13:09 51°32.743 2°59.542 4.6 288 8.7 102400 79
2004-04-13 13:10 51°32.716 2°59.581 5 298 8.9 102400 80
2004-04-13 13:11 51°32.649 2°59.756 6 41 9 102390 79
2004-04-13 13:12 51°32.433 2°59.852 3.2 357 8.9 102400 78
2004-04-13 13:13 51°32.203 2°59.738 2.4 19 9.1 102400 79
2004-04-13 13:14 51°31.974 2°59.585 2.7 18 9.1 102400 78
2004-04-13 13:15 51°31.748 2°59.429 3.5 34 9.2 102400 78
2004-04-13 13:16 51°31.532 2°59.276 2.6 30 9.2 102400 78
2004-04-13 13:17 51°31.309 2°59.117 3.1 27 9.1 102400 78
2004-04-13 13:18 51°31.083 2°58.954 2.7 26 9.1 102400 78
2004-04-13 13:19 51°30.858 2°58.811 3 28 9.1 102390 78
2004-04-13 13:20 51°30.631 2°58.677 2.3 21 9.2 102390 78
2004-04-13 13:21 51°30.405 2°58.542 2.6 35 9.2 102390 77
2004-04-13 13:22 51°30.183 2°58.409 2.8 37 9.1 102390 77
2004-04-13 13:23 51°29.955 2°58.27 2.3 35 9 102390 77
2004-04-13 13:24 51°29.729 2°58.134 2.5 33 8.9 102390 77
2004-04-13 13:25 51°29.499 2°57.999 2.7 20 9 102390 78
2004-04-13 13:26 51°29.276 2°57.867 2.6 37 9 102390 78
2004-04-13 13:27 51°29.052 2°57.733 3.1 39 9.1 102390 78
2004-04-13 13:28 51°28.819 2°57.59 2.3 46 9 102390 78
2004-04-13 13:29 51°28.59 2°57.451 2.7 39 8.9 102390 78
2004-04-13 13:30 51°28.36 2°57.306 2.6 35 8.9 102390 79
2004-04-13 13:31 51°28.129 2°57.162 3.2 43 8.9 102390 79
2004-04-13 13:32 51°27.899 2°57.016 3.2 57 8.9 102390 80
2004-04-13 13:33 51°27.67 2°56.865 3.5 57 8.8 102390 80
2004-04-13 13:34 51°27.446 2°56.715 2.5 50 8.8 102380 80
2004-04-13 13:35 51°27.215 2°56.564 3.3 36 8.7 102390 80
2004-04-13 13:36 51°26.984 2°56.412 2.3 53 8.7 102390 81
2004-04-13 13:37 51°26.761 2°56.265 2.4 44 8.7 102390 81
2004-04-13 13:38 51°26.533 2°56.116 3 69 8.8 102380 81
2004-04-13 13:39 51°26.306 2°55.967 3.1 51 8.8 102380 81
2004-04-13 13:40 51°26.077 2°55.847 2.1 48 8.8 102380 81
2004-04-13 13:41 51°25.843 2°55.74 1.8 53 8.7 102380 81
2004-04-13 13:42 51°25.607 2°55.632 2.3 43 8.8 102380 81
2004-04-13 13:43 51°25.367 2°55.52 1.7 48 8.8 102390 81
2004-04-13 13:44 51°25.134 2°55.41 2.8 41 8.8 102380 81
2004-04-13 13:45 51°24.897 2°55.3 3.5 43 8.9 102380 81
2004-04-13 13:46 51°24.654 2°55.184 3.1 34 8.8 102380 80
2004-04-13 13:47 51°24.423 2°55.073 3 34 8.8 102380 80
2004-04-13 13:48 51°24.188 2°54.956 2.6 53 8.9 102380 81
2004-04-13 13:49 51°23.949 2°54.838 2.1 52 8.9 102380 80
2004-04-13 13:50 51°23.712 2°54.722 2.4 61 8.9 102380 80
2004-04-13 13:51 51°23.474 2°54.607 1.8 52 8.8 102370 80
2004-04-13 13:52 51°23.238 2°54.491 2.4 58 8.8 102370 80
2004-04-13 13:53 51°23.002 2°54.378 2.1 51 8.8 102370 80
2004-04-13 13:54 51°22.757 2°54.255 2.8 49 8.8 102370 80
2004-04-13 13:55 51°22.518 2°54.132 3.8 60 8.9 102370 80
2004-04-13 13:56 51°22.281 2°54.015 2.7 79 8.8 102370 80
2004-04-13 13:57 51°22.052 2°53.898 2.5 67 8.8 102360 80
2004-04-13 13:58 51°21.813 2°53.776 2 81 8.9 102360 80
2004-04-13 13:59 51°21.58 2°53.658 2.3 65 8.8 102360 80
2004-04-13 14:00 51°21.344 2°53.541 2.2 69 8.9 102360 80
2004-04-13 14:01 51°21.112 2°53.424 2 55 9 102370 80
2004-04-13 14:02 51°20.871 2°53.301 2.2 51 9 102360 80
2004-04-13 14:03 51°20.634 2°53.182 1.9 62 9 102370 80
2004-04-13 14:04 51°20.4 2°53.061 1.9 56 9 102360 80
2004-04-13 14:05 51°20.155 2°52.934 1.9 63 9 102360 80
2004-04-13 14:06 51°19.916 2°52.833 0.9 78 9 102360 80
2004-04-13 14:07 51°19.686 2°52.736 1 52 9 102360 80
2004-04-13 14:08 51°19.445 2°52.63 1.6 55 9.1 102360 80
2004-04-13 14:09 51°19.209 2°52.553 2.4 35 9.2 102360 80
2004-04-13 14:10 51°18.96 2°52.483 1.3 70 9.3 102360 80
2004-04-13 14:11 51°18.722 2°52.417 0.9 75 9.2 102360 79
2004-04-13 14:12 51°18.476 2°52.365 0.5 21 9.3 102350 79
2004-04-13 14:13 51°18.233 2°52.334 0.4 350 9.3 102360 79
2004-04-13 14:14 51°17.997 2°52.304 0.7 346 9.5 102360 79
2004-04-13 14:15 51°17.75 2°52.303 1.6 297 9.7 102350 79
2004-04-13 14:16 51°17.506 2°52.321 1.9 300 9.8 102360 79
2004-04-13 14:17 51°17.261 2°52.343 3.6 297 10 102350 78
2004-04-13 14:18 51°17.04 2°52.469 4 291 9.9 102350 77
2004-04-13 14:19 51°16.815 2°52.605 3.8 302 9.9 102350 76
2004-04-13 14:20 51°16.594 2°52.739 4.5 293 9.9 102350 76
2004-04-13 14:21 51°16.364 2°52.87 4.2 291 9.9 102350 76
2004-04-13 14:22 51°16.141 2°52.99 3.2 289 9.9 102350 76
2004-04-13 14:23 51°15.917 2°53.101 3.5 303 9.9 102350 76
2004-04-13 14:24 51°15.696 2°53.214 4.5 304 9.9 102350 76
2004-04-13 14:25 51°15.492 2°53.38 5.3 297 9.9 102350 76
2004-04-13 14:26 51°15.301 2°53.576 5.5 291 9.9 102340 76
2004-04-13 14:27 51°15.109 2°53.779 5.9 306 9.8 102350 76
2004-04-13 14:28 51°14.931 2°53.989 6.1 294 9.8 102340 76
2004-04-13 14:29 51°14.754 2°54.215 7.6 307 9.7 102350 77
2004-04-13 14:30 51°14.593 2°54.468 8.4 303 9.6 102340 77
2004-04-13 14:31 51°14.476 2°54.753 8.1 313 9.5 102340 77
2004-04-13 14:32 51°14.368 2°55.039 8.7 303 9.4 102340 77